Change the Weather History Date:

Saturday, September 14, 2013

  Actual Average Record
Temperature  
Mean Temperature 52 °F -  
Max Temperature 60 °F 73 °F 89 °F (1982)
Min Temperature 44 °F 50 °F 36 °F (1985)
Degree Days  
Heating Degree Days 12    
Growing Degree Days 2 (Base 50)    
Moisture  
Dew Point 44 °F    
Average Humidity 77    
Maximum Humidity 93    
Minimum Humidity 55    
Precipitation  
Precipitation 0.00 in - - ()
Sea Level Pressure  
Sea Level Pressure 30.05 in    
Wind  
Wind Speed 7 mph (WNW)    
Max Wind Speed 16 mph    
Max Gust Speed -    
Visibility 10 miles    
Events      
Averages and records for this station are not official NWS values.
T = Trace of Precipitation, MM = Missing Value Source: NWS Daily Summary

Daily Weather History Graph

Daily Weather History Graph

Search for Another Location

Airport or City:

Trip Planner

Search our weather history database for the weather conditions in past years. The results will help you decide how hot, cold, wet, or windy it might be!

Date:

Astronomy

Sep. 14, 2013 Rise Set
Actual Time 6:40 AM EDT 7:13 PM EDT
Civil Twilight 6:11 AM EDT 7:41 PM EDT
Nautical Twilight 5:37 AM EDT 8:15 PM EDT
Astronomical Twilight 5:02 AM EDT 8:50 PM EDT
Moon 3:58 PM EDT (9/14) 1:02 AM EDT (9/14)
Length of Visible Light 13h 30m
Length of Day
12h 32m
Waxing Gibbous, 72% of the Moon is Illuminated
Sep 14
Waxing Gibbous
Sep 19
Full
Sep 26
Last Quarter
Oct 4
New
Oct 11
First Quarter

Hourly Weather History & Observations

Time (EDT) Temp. Windchill Dew Point Humidity Pressure Visibility Wind Dir Wind Speed Gust Speed Precip Events Conditions
12:53 AM 50.0 °F - 46.0 °F 86% 29.96 in 10.0 mi WNW 8.1 mph - N/A   Overcast
1:53 AM 50.0 °F - 45.0 °F 83% 29.97 in 10.0 mi NW 5.8 mph - N/A   Overcast
2:53 AM 50.0 °F - 45.0 °F 83% 29.97 in 10.0 mi NW 8.1 mph - N/A   Overcast
3:53 AM 48.9 °F - 44.1 °F 83% 29.98 in 10.0 mi NNW 5.8 mph - N/A   Overcast
4:01 AM 48.9 °F - 43.0 °F 80% 29.98 in 10.0 mi North 5.8 mph - N/A   Overcast
4:53 AM 48.9 °F - 45.0 °F 86% 29.99 in 10.0 mi NNW 3.5 mph - N/A   Overcast
5:18 AM 48.9 °F - 44.1 °F 83% 30.00 in 10.0 mi NW 5.8 mph - N/A   Overcast
5:40 AM 48.9 °F - 44.1 °F 83% 30.00 in 10.0 mi NW 4.6 mph - N/A   Overcast
5:53 AM 48.9 °F - 44.1 °F 83% 30.01 in 10.0 mi WNW 5.8 mph - N/A   Overcast
6:23 AM 48.9 °F - 45.0 °F 86% 30.01 in 10.0 mi WNW 4.6 mph - N/A   Overcast
6:34 AM 48.9 °F - 45.0 °F 86% 30.01 in 10.0 mi West 6.9 mph - N/A   Overcast
6:44 AM 48.9 °F - 45.0 °F 86% 30.02 in 10.0 mi WNW 5.8 mph - N/A   Overcast
6:53 AM 48.9 °F - 45.0 °F 86% 30.02 in 10.0 mi West 6.9 mph - N/A   Overcast
7:01 AM 48.9 °F - 45.0 °F 86% 30.02 in 10.0 mi West 6.9 mph - N/A   Overcast
7:34 AM 48.9 °F - 44.1 °F 83% 30.04 in 10.0 mi WNW 6.9 mph - N/A   Overcast
7:44 AM 48.9 °F - 44.1 °F 83% 30.04 in 10.0 mi WNW 8.1 mph - N/A   Overcast
7:53 AM 50.0 °F - 44.1 °F 80% 30.04 in 10.0 mi NW 6.9 mph - N/A   Overcast
8:33 AM 50.0 °F - 43.0 °F 77% 30.05 in 10.0 mi NW 11.5 mph - N/A   Overcast
8:53 AM 51.1 °F - 43.0 °F 74% 30.06 in 10.0 mi NW 11.5 mph - N/A   Mostly Cloudy
9:53 AM 52.0 °F - 43.0 °F 71% 30.08 in 10.0 mi WNW 8.1 mph - N/A   Overcast
10:00 AM 52.0 °F - 43.0 °F 71% 30.08 in 10.0 mi WNW 10.4 mph - N/A   Overcast
10:29 AM 53.1 °F - 44.1 °F 71% 30.08 in 10.0 mi WNW 10.4 mph - N/A   Overcast
10:53 AM 54.0 °F - 44.1 °F 69% 30.08 in 10.0 mi West 11.5 mph - N/A   Overcast
11:53 AM 55.9 °F - 45.0 °F 67% 30.07 in 10.0 mi West 9.2 mph - N/A   Overcast
12:53 PM 57.9 °F - 45.0 °F 62% 30.06 in 10.0 mi WNW 12.7 mph - N/A   Overcast
1:53 PM 59.0 °F - 44.1 °F 58% 30.05 in 10.0 mi West 12.7 mph - N/A   Mostly Cloudy
2:53 PM 60.1 °F - 44.1 °F 55% 30.04 in 10.0 mi West 12.7 mph - N/A   Overcast
3:53 PM 59.0 °F - 43.0 °F 55% 30.05 in 10.0 mi WNW 16.1 mph - N/A   Overcast
4:53 PM 57.9 °F - 43.0 °F 58% 30.06 in 10.0 mi West 11.5 mph - N/A   Overcast
5:53 PM 57.9 °F - 42.1 °F 56% 30.08 in 10.0 mi WNW 11.5 mph - N/A   Overcast
6:53 PM 55.9 °F - 44.1 °F 64% 30.11 in 10.0 mi West 8.1 mph - N/A   Overcast
7:53 PM 52.0 °F - 44.1 °F 74% 30.11 in 10.0 mi NNW 5.8 mph - N/A   Partly Cloudy
8:53 PM 51.1 °F - 44.1 °F 77% 30.12 in 10.0 mi Calm Calm - N/A   Clear
9:53 PM 46.0 °F 44.8 °F 44.1 °F 93% 30.14 in 10.0 mi NE 3.5 mph - N/A   Clear
10:53 PM 45.0 °F - 43.0 °F 93% 30.14 in 10.0 mi Calm Calm - N/A   Clear
11:53 PM 44.1 °F - 42.1 °F 93% 30.14 in 10.0 mi Calm Calm - N/A   Clear